Total_Precipitation_Accumulation
0.77 0.50 0.53 0.59 0.58 0.43 0.41 0.45 0.49 0.49 0.55 0.39 0.24 0.22 0.20 0.15 0.17 0.43 0.46 0.48 0.67 0.41 0.26 0.22 0.14 0.09 0.01 0.02 0.10 0.05 0.11 0.06 0.09 0.06 0.03 0.02 0.01 0.00 0.01 0.00 0.00 0.00 0.00 0.00 0.01 0.01 0.01 0.00 0.00 0.02 0.03 0.02 0.02 0.01
0.86 0.61 0.60 0.55 0.54 0.44 0.40 0.42 0.45 0.44 0.49 0.30 0.19 0.20 0.18 0.14 0.18 0.42 0.53 0.47 0.59 0.59 0.42 0.31 0.15 0.08 0.02 0.00 0.04 0.10 0.06 0.02 0.03 0.04 0.02 0.04 0.01 0.00 0.00 0.00 0.00 0.00 0.00 0.00 0.02 0.01 0.00 0.00 0.01 0.02 0.01 0.04 0.03 0.01
1.09 0.73 0.59 0.51 0.48 0.41 0.41 0.41 0.44 0.40 0.40 0.25 0.20 0.23 0.20 0.17 0.25 0.43 0.48 0.55 1.49 0.82 0.44 0.19 0.23 0.16 0.07 0.02 0.03 0.06 0.05 0.02 0.03 0.03 0.03 0.03 0.03 0.00 0.00 0.00 0.00 0.01 0.00 0.00 0.01 0.00 0.00 0.01 0.00 0.01 0.01 0.00 0.00 0.01
1.08 0.77 0.59 0.49 0.39 0.37 0.42 0.44 0.39 0.39 0.35 0.25 0.24 0.23 0.22 0.25 0.40 0.41 0.36 0.83 1.76 1.01 0.91 0.30 0.19 0.23 0.17 0.09 0.03 0.02 0.04 0.05 0.05 0.06 0.06 0.05 0.03 0.01 0.00 0.00 0.01 0.01 0.02 0.01 0.01 0.00 0.01 0.02 0.04 0.03 0.01 0.01 0.00 0.00
0.94 0.82 0.64 0.45 0.33 0.32 0.34 0.35 0.35 0.35 0.35 0.26 0.23 0.20 0.26 0.30 0.51 0.35 0.46 0.99 1.33 1.18 1.03 0.62 0.15 0.24 0.27 0.16 0.09 0.04 0.04 0.04 0.07 0.11 0.09 0.04 0.01 0.01 0.02 0.04 0.04 0.00 0.00 0.03 0.03 0.02 0.05 0.08 0.04 0.03 0.02 0.01 0.00 0.00
0.83 0.68 0.59 0.34 0.24 0.23 0.23 0.23 0.29 0.34 0.25 0.18 0.18 0.23 0.28 0.43 0.67 0.56 1.08 0.79 0.91 0.96 0.93 0.80 0.38 0.20 0.31 0.35 0.24 0.14 0.06 0.04 0.06 0.07 0.07 0.03 0.01 0.02 0.08 0.05 0.00 0.00 0.01 0.02 0.02 0.03 0.05 0.06 0.02 0.00 0.01 0.00 0.00 0.00
0.76 0.61 0.51 0.35 0.23 0.22 0.27 0.26 0.27 0.23 0.15 0.19 0.23 0.31 0.36 0.67 0.54 0.79 1.08 0.60 0.65 1.06 1.16 0.71 0.80 0.22 0.30 0.46 0.41 0.20 0.11 0.12 0.10 0.08 0.04 0.02 0.03 0.11 0.14 0.05 0.00 0.00 0.00 0.00 0.01 0.02 0.03 0.01 0.01 0.00 0.00 0.00 0.00 0.00
0.74 0.60 0.43 0.29 0.24 0.28 0.31 0.37 0.31 0.21 0.18 0.23 0.31 0.31 0.60 0.69 0.62 0.79 0.59 0.65 0.60 0.86 0.64 0.52 0.50 0.50 0.46 0.51 0.62 0.38 0.34 0.22 0.20 0.10 0.04 0.01 0.03 0.05 0.08 0.02 0.00 0.00 0.00 0.00 0.00 0.01 0.04 0.03 0.01 0.00 0.00 0.00 0.00 0.02
0.50 0.34 0.24 0.22 0.23 0.24 0.29 0.41 0.41 0.32 0.26 0.30 0.35 0.68 0.99 0.97 0.97 0.71 0.78 0.76 0.82 0.86 0.59 0.25 0.38 0.40 0.57 0.42 0.63 0.68 0.49 0.48 0.16 0.08 0.04 0.05 0.03 0.04 0.01 0.00 0.00 0.00 0.00 0.01 0.01 0.01 0.00 0.01 0.01 0.00 0.01 0.03 0.10 0.26
0.31 0.23 0.16 0.13 0.12 0.17 0.21 0.29 0.37 0.49 0.68 1.05 1.32 1.55 1.43 1.01 0.87 0.94 1.18 1.07 1.10 0.74 0.40 0.23 0.30 0.55 0.41 0.62 0.40 0.72 0.76 0.59 0.50 0.19 0.12 0.06 0.01 0.00 0.00 0.00 0.00 0.00 0.00 0.00 0.00 0.00 0.02 0.04 0.05 0.09 0.16 0.20 0.22 0.19
0.29 0.21 0.14 0.11 0.10 0.12 0.16 0.24 0.40 0.75 1.72 2.17 2.26 1.99 1.36 1.21 1.00 1.23 1.22 0.99 0.77 0.35 0.16 0.16 0.23 0.44 0.32 0.47 0.60 0.52 0.75 0.62 0.47 0.43 0.30 0.25 0.09 0.01 0.00 0.00 0.00 0.00 0.00 0.00 0.00 0.01 0.04 0.10 0.25 0.25 0.16 0.09 0.06 0.02
0.30 0.20 0.14 0.11 0.10 0.12 0.11 0.24 0.53 0.95 1.56 2.16 1.98 1.48 1.48 1.66 1.33 1.35 1.31 0.81 0.35 0.15 0.05 0.10 0.10 0.16 0.36 0.46 0.65 0.86 0.70 0.62 0.38 0.17 0.28 0.22 0.09 0.07 0.07 0.06 0.04 0.03 0.03 0.04 0.08 0.15 0.18 0.18 0.14 0.09 0.04 0.02 0.02 0.02
0.27 0.20 0.21 0.18 0.15 0.18 0.22 0.43 0.68 0.96 1.49 1.76 1.66 1.85 1.85 1.92 1.73 1.30 0.74 0.38 0.17 0.07 0.06 0.10 0.12 0.18 0.20 0.42 0.79 0.81 0.80 0.61 0.35 0.35 0.30 0.23 0.16 0.19 0.24 0.26 0.29 0.28 0.25 0.24 0.16 0.13 0.10 0.06 0.03 0.03 0.04 0.06 0.09 0.12
0.23 0.19 0.23 0.27 0.34 0.43 0.49 0.59 0.85 1.28 1.30 1.54 1.65 1.83 1.68 1.49 1.15 0.76 0.40 0.24 0.20 0.17 0.11 0.17 0.17 0.17 0.16 0.28 0.70 0.79 0.82 0.52 0.59 0.46 0.34 0.39 0.51 0.52 0.28 0.16 0.14 0.16 0.19 0.20 0.18 0.17 0.15 0.11 0.11 0.14 0.16 0.20 0.22 0.26
0.15 0.13 0.22 0.35 0.31 0.35 0.60 0.71 0.73 0.88 1.01 1.00 0.96 1.00 0.94 0.92 0.77 0.63 0.56 0.45 0.42 0.37 0.33 0.47 0.52 0.44 0.42 0.60 0.57 0.48 0.47 0.46 0.40 0.43 0.43 0.39 0.44 0.34 0.20 0.17 0.15 0.16 0.17 0.16 0.19 0.23 0.27 0.26 0.25 0.27 0.28 0.25 0.18 0.12
0.34 0.20 0.25 0.32 0.38 0.47 0.49 0.58 0.67 0.78 0.65 0.58 0.55 0.63 0.66 0.64 0.63 0.61 0.60 0.56 0.56 0.58 0.54 0.56 0.52 0.45 0.55 0.45 0.34 0.35 0.35 0.40 0.43 0.24 0.17 0.16 0.18 0.21 0.22 0.23 0.29 0.29 0.23 0.18 0.17 0.16 0.17 0.18 0.14 0.14 0.15 0.11 0.08 0.05
0.51 0.20 0.29 0.27 0.33 0.35 0.41 0.40 0.45 0.44 0.43 0.33 0.54 0.60 0.53 0.46 0.48 0.51 0.48 0.44 0.38 0.35 0.35 0.23 0.21 0.25 0.26 0.26 0.31 0.32 0.39 0.33 0.23 0.19 0.20 0.20 0.21 0.22 0.22 0.28 0.29 0.30 0.25 0.18 0.15 0.14 0.14 0.12 0.07 0.04 0.04 0.04 0.02 0.02
0.74 0.30 0.24 0.20 0.21 0.26 0.32 0.25 0.15 0.07 0.14 0.36 0.39 0.58 0.42 0.47 0.43 0.39 0.40 0.30 0.23 0.20 0.18 0.19 0.15 0.18 0.27 0.28 0.30 0.31 0.34 0.34 0.43 0.42 0.39 0.36 0.32 0.32 0.32 0.32 0.32 0.28 0.22 0.18 0.13 0.14 0.15 0.14 0.10 0.09 0.05 0.04 0.02 0.02
0.76 0.51 0.34 0.38 0.27 0.17 0.13 0.08 0.02 0.09 0.31 0.34 0.41 0.35 0.24 0.28 0.29 0.29 0.24 0.22 0.22 0.18 0.20 0.25 0.25 0.30 0.36 0.38 0.44 0.42 0.44 0.47 0.51 0.45 0.40 0.41 0.39 0.38 0.38 0.36 0.33 0.28 0.18 0.16 0.14 0.13 0.13 0.12 0.10 0.08 0.06 0.04 0.04 0.05
0.78 0.69 0.50 0.27 0.04 0.01 0.00 0.01 0.00 0.05 0.19 0.26 0.25 0.15 0.11 0.17 0.10 0.04 0.04 0.03 0.03 0.04 0.14 0.24 0.44 0.50 0.53 0.59 0.60 0.54 0.52 0.49 0.32 0.27 0.36 0.44 0.49 0.38 0.40 0.34 0.29 0.25 0.18 0.17 0.15 0.14 0.11 0.09 0.10 0.10 0.10 0.10 0.09 0.08
0.74 0.78 0.53 0.26 0.09 0.00 0.00 0.00 0.03 0.06 0.09 0.14 0.14 0.03 0.04 0.03 0.01 0.01 0.00 0.00 0.02 0.12 0.31 0.47 0.49 0.48 0.49 0.55 0.50 0.44 0.40 0.33 0.25 0.22 0.27 0.32 0.39 0.30 0.30 0.31 0.25 0.20 0.16 0.16 0.13 0.15 0.14 0.15 0.16 0.14 0.13 0.10 0.08 0.07
0.40 0.46 0.41 0.35 0.21 0.03 0.00 0.00 0.02 0.02 0.01 0.03 0.02 0.01 0.02 0.03 0.03 0.02 0.01 0.02 0.12 0.31 0.39 0.36 0.35 0.31 0.27 0.31 0.40 0.41 0.47 0.37 0.30 0.26 0.26 0.23 0.24 0.25 0.27 0.31 0.23 0.22 0.22 0.24 0.20 0.18 0.15 0.13 0.11 0.10 0.07 0.07 0.07 0.06
0.29 0.38 0.37 0.37 0.27 0.09 0.04 0.00 0.00 0.00 0.01 0.01 0.03 0.02 0.02 0.03 0.04 0.02 0.04 0.08 0.17 0.31 0.31 0.24 0.23 0.21 0.21 0.27 0.18 0.17 0.23 0.23 0.30 0.37 0.35 0.30 0.29 0.30 0.26 0.28 0.26 0.22 0.18 0.19 0.16 0.14 0.12 0.10 0.07 0.06 0.06 0.05 0.05 0.04
0.31 0.37 0.38 0.31 0.20 0.13 0.05 0.04 0.02 0.02 0.01 0.02 0.02 0.05 0.05 0.04 0.02 0.03 0.05 0.12 0.22 0.14 0.11 0.15 0.17 0.16 0.12 0.10 0.11 0.14 0.17 0.12 0.15 0.18 0.22 0.16 0.14 0.19 0.16 0.15 0.13 0.14 0.14 0.12 0.08 0.06 0.04 0.04 0.05 0.04 0.03 0.04 0.04 0.06
0.41 0.30 0.25 0.20 0.11 0.05 0.03 0.03 0.04 0.03 0.02 0.02 0.04 0.06 0.04 0.02 0.03 0.04 0.07 0.19 0.14 0.14 0.16 0.18 0.13 0.14 0.15 0.17 0.17 0.15 0.13 0.10 0.08 0.09 0.14 0.12 0.11 0.09 0.07 0.07 0.07 0.06 0.04 0.03 0.03 0.04 0.04 0.04 0.04 0.04 0.04 0.06 0.08 0.09
0.28 0.18 0.13 0.08 0.05 0.06 0.04 0.03 0.03 0.04 0.04 0.07 0.08 0.08 0.05 0.06 0.04 0.08 0.14 0.22 0.18 0.18 0.19 0.20 0.18 0.12 0.12 0.11 0.11 0.11 0.10 0.10 0.07 0.06 0.09 0.06 0.07 0.08 0.07 0.06 0.04 0.04 0.05 0.06 0.09 0.08 0.04 0.03 0.04 0.05 0.06 0.05 0.08 0.12
0.12 0.08 0.04 0.05 0.07 0.11 0.11 0.07 0.08 0.10 0.09 0.11 0.10 0.08 0.14 0.13 0.10 0.18 0.19 0.20 0.19 0.21 0.17 0.14 0.10 0.09 0.11 0.11 0.09 0.06 0.03 0.01 0.01 0.03 0.03 0.03 0.03 0.05 0.09 0.15 0.16 0.13 0.06 0.07 0.10 0.12 0.13 0.11 0.09 0.07 0.08 0.08 0.09 0.16
0.07 0.05 0.06 0.10 0.15 0.17 0.18 0.16 0.18 0.20 0.19 0.19 0.16 0.13 0.14 0.13 0.18 0.23 0.24 0.26 0.22 0.14 0.08 0.05 0.03 0.03 0.04 0.05 0.05 0.05 0.02 0.01 0.01 0.01 0.03 0.06 0.08 0.08 0.09 0.11 0.11 0.08 0.07 0.09 0.09 0.10 0.12 0.15 0.14 0.12 0.13 0.15 0.17 0.18
0.12 0.16 0.13 0.12 0.08 0.08 0.12 0.15 0.16 0.17 0.16 0.15 0.12 0.11 0.11 0.11 0.20 0.21 0.21 0.17 0.13 0.08 0.06 0.06 0.09 0.07 0.04 0.02 0.02 0.02 0.01 0.01 0.02 0.02 0.02 0.04 0.10 0.09 0.06 0.07 0.07 0.07 0.07 0.05 0.05 0.09 0.13 0.17 0.15 0.17 0.22 0.22 0.18 0.16
0.07 0.07 0.05 0.03 0.04 0.07 0.09 0.07 0.08 0.07 0.04 0.04 0.03 0.04 0.06 0.14 0.22 0.18 0.12 0.08 0.07 0.09 0.10 0.08 0.07 0.04 0.04 0.03 0.02 0.05 0.08 0.05 0.06 0.09 0.08 0.08 0.10 0.09 0.07 0.07 0.06 0.07 0.07 0.07 0.05 0.04 0.05 0.06 0.07 0.14 0.10 0.08 0.10 0.12
0.01 0.02 0.02 0.02 0.06 0.08 0.05 0.04 0.06 0.07 0.05 0.04 0.04 0.04 0.12 0.14 0.16 0.10 0.08 0.12 0.06 0.06 0.05 0.03 0.02 0.03 0.03 0.04 0.05 0.05 0.09 0.08 0.08 0.08 0.09 0.09 0.08 0.07 0.07 0.05 0.05 0.06 0.06 0.06 0.06 0.06 0.07 0.07 0.09 0.11 0.07 0.06 0.08 0.08
0.02 0.03 0.01 0.02 0.07 0.05 0.05 0.07 0.07 0.10 0.07 0.05 0.08 0.06 0.10 0.08 0.07 0.09 0.08 0.07 0.03 0.03 0.04 0.06 0.05 0.07 0.09 0.09 0.09 0.09 0.09 0.08 0.06 0.06 0.08 0.08 0.07 0.07 0.05 0.04 0.04 0.05 0.06 0.06 0.06 0.08 0.08 0.08 0.08 0.08 0.09 0.07 0.07 0.06
0.02 0.02 0.02 0.02 0.04 0.06 0.04 0.05 0.04 0.04 0.04 0.06 0.09 0.09 0.10 0.07 0.07 0.11 0.10 0.06 0.06 0.06 0.06 0.07 0.08 0.10 0.11 0.07 0.06 0.07 0.05 0.05 0.06 0.06 0.07 0.08 0.06 0.05 0.04 0.04 0.04 0.05 0.05 0.06 0.07 0.08 0.07 0.06 0.06 0.07 0.06 0.06 0.05 0.05